Find Starlink 34374

NORAD ID: 64308 Int'l Des: 2025-123 Owner: SPXS Country: US Constellation: starlink operational
LEOCIRCULAR

Live Position

Loading 3D Globe...

About Starlink 34374

Description loading...

Upcoming Passes

Passes for default location (London). Set your location on the main map for personalized predictions.

Altitude History

Loading altitude history...

Two-Line Element Set

1 64308U 25123T 26104.58335648 -.00048542 00000-0 -40859-2 0 9992
2 64308 69.9995 104.0381 0004078 271.7412 62.6941 14.98352566 5709
Epoch: Apr 14, 2026 • Age: 21 hours

Current Status

Altitude 592.1 km
Velocity 7.56 km/s
Sub-Earth Point -59.75°S, 60.19°E
Launch Date Jun 8, 2025
Age 0.8 years
Type internet

Technical Details

Classification Payload
Mass 575.00 kg
Dry Mass 530.00 kg
Total Mass 575.00 kg
Length 0.30 m
Diameter 4.10 m
Span 29.00 m
Shape Box + pan
Manufacturer SPXS
Bus Type Starlink V2MO
Phase Status In Orbit
Owner/State SPXS/US

Most Searched